Time,TemperatureF,DewpointF,PressureIn,WindDirection,WindDirectionDegrees,WindSpeedMPH,WindSpeedGustMPH,Humidity,HourlyPrecipIn,Conditions,Clouds,dailyrainin,SoftwareType,DateUTC
2013-04-26 00:09:00,43.9,36.2,30.29,West,270,4.7,-999.0,74,-99.99,,,0.00,Acu-Link.com,2013-04-26 04:09:00,
2013-04-26 00:24:00,43.7,36.3,30.29,SE,135,0.0,-999.0,75,-99.99,,,0.00,Acu-Link.com,2013-04-26 04:24:00,
2013-04-26 00:39:00,43.5,36.8,30.29,East,90,2.7,-999.0,77,-99.99,,,0.00,Acu-Link.com,2013-04-26 04:39:00,
2013-04-26 00:55:00,43.3,36.3,30.29,SE,135,0.0,-999.0,76,-99.99,,,0.00,Acu-Link.com,2013-04-26 04:55:00,
2013-04-26 01:10:00,43.5,36.4,30.29,West,270,1.1,-999.0,76,-99.99,,,0.00,Acu-Link.com,2013-04-26 05:10:00,
2013-04-26 01:25:00,42.8,36.4,30.29,SE,135,0.0,-999.0,78,-99.99,,,0.00,Acu-Link.com,2013-04-26 05:25:00,
2013-04-26 01:40:00,42.1,36.1,30.29,West,270,0.0,-999.0,79,-99.99,,,0.00,Acu-Link.com,2013-04-26 05:40:00,
2013-04-26 01:56:00,41.5,35.8,30.29,West,270,0.0,-999.0,80,-99.99,,,0.00,Acu-Link.com,2013-04-26 05:56:00,
2013-04-26 02:11:00,41.4,36.0,30.29,West,270,0.0,-999.0,81,-99.99,,,0.00,Acu-Link.com,2013-04-26 06:11:00,
2013-04-26 02:26:00,41.7,35.4,30.29,West,270,0.0,-999.0,78,-99.99,,,0.00,Acu-Link.com,2013-04-26 06:26:00,
2013-04-26 02:42:00,41.4,35.4,30.29,West,270,0.0,-999.0,79,-99.99,,,0.00,Acu-Link.com,2013-04-26 06:42:00,
2013-04-26 02:57:00,41.0,35.9,30.29,West,270,0.0,-999.0,82,-99.99,,,0.00,Acu-Link.com,2013-04-26 06:57:00,
2013-04-26 03:12:00,41.0,36.2,30.29,NE,45,0.0,-999.0,83,-99.99,,,0.00,Acu-Link.com,2013-04-26 07:12:00,
2013-04-26 03:27:00,40.6,36.5,30.30,West,270,1.1,-999.0,85,-99.99,,,0.00,Acu-Link.com,2013-04-26 07:27:00,
2013-04-26 03:43:00,40.6,36.2,30.30,WSW,247,0.0,-999.0,84,-99.99,,,0.00,Acu-Link.com,2013-04-26 07:43:00,
2013-04-26 03:58:00,40.6,35.8,30.30,East,90,0.0,-999.0,83,-99.99,,,0.00,Acu-Link.com,2013-04-26 07:58:00,
2013-04-26 04:13:00,40.5,36.4,30.31,ENE,67,0.0,-999.0,85,-99.99,,,0.00,Acu-Link.com,2013-04-26 08:13:00,
2013-04-26 04:28:00,39.7,35.6,30.31,ENE,67,0.0,-999.0,85,-99.99,,,0.00,Acu-Link.com,2013-04-26 08:28:00,
2013-04-26 04:43:00,39.4,36.4,30.32,ESE,112,0.0,-999.0,89,-99.99,,,0.00,Acu-Link.com,2013-04-26 08:43:00,
2013-04-26 04:59:00,38.8,35.8,30.32,ESE,112,0.0,-999.0,89,-99.99,,,0.00,Acu-Link.com,2013-04-26 08:59:00,
2013-04-26 05:14:00,38.5,36.7,30.31,ESE,112,0.0,-999.0,93,-99.99,,,0.00,Acu-Link.com,2013-04-26 09:14:00,
2013-04-26 05:29:00,37.8,35.7,30.32,ESE,112,0.0,-999.0,92,-99.99,,,0.00,Acu-Link.com,2013-04-26 09:29:00,
2013-04-26 05:44:00,36.7,34.6,30.33,ESE,112,0.0,-999.0,92,-99.99,,,0.00,Acu-Link.com,2013-04-26 09:44:00,
2013-04-26 06:00:00,36.9,35.1,30.33,WSW,247,0.0,-999.0,93,-99.99,,,0.00,Acu-Link.com,2013-04-26 10:00:00,
2013-04-26 06:15:00,37.4,35.3,30.34,ESE,112,0.0,-999.0,92,-99.99,,,0.00,Acu-Link.com,2013-04-26 10:15:00,
2013-04-26 06:30:00,36.3,34.7,30.35,West,270,0.0,-999.0,94,-99.99,,,0.00,Acu-Link.com,2013-04-26 10:30:00,
2013-04-26 06:45:00,36.1,34.5,30.35,ESE,112,0.0,-999.0,94,-99.99,,,0.00,Acu-Link.com,2013-04-26 10:45:00,
2013-04-26 07:01:00,36.5,35.2,30.36,East,90,0.0,-999.0,95,-99.99,,,0.00,Acu-Link.com,2013-04-26 11:01:00,
2013-04-26 07:16:00,37.6,35.5,30.36,South,180,0.0,-999.0,92,-99.99,,,0.00,Acu-Link.com,2013-04-26 11:16:00,
2013-04-26 07:31:00,38.8,35.8,30.37,SW,225,0.0,-999.0,89,-99.99,,,0.00,Acu-Link.com,2013-04-26 11:31:00,
2013-04-26 07:46:00,39.2,36.2,30.38,West,270,0.0,-999.0,89,-99.99,,,0.00,Acu-Link.com,2013-04-26 11:46:00,
2013-04-26 08:01:00,40.8,36.9,30.38,West,270,2.2,-999.0,86,-99.99,,,0.00,Acu-Link.com,2013-04-26 12:01:00,
2013-04-26 08:17:00,45.5,38.0,30.39,SW,225,1.7,-999.0,75,-99.99,,,0.00,Acu-Link.com,2013-04-26 12:17:00,
2013-04-26 08:32:00,49.6,37.9,30.40,West,270,2.7,-999.0,64,-99.99,,,0.00,Acu-Link.com,2013-04-26 12:32:00,
2013-04-26 08:47:00,47.8,38.9,30.40,East,90,3.2,-999.0,71,-99.99,,,0.00,Acu-Link.com,2013-04-26 12:47:00,
2013-04-26 09:02:00,48.2,38.1,30.40,WNW,292,2.7,-999.0,68,-99.99,,,0.00,Acu-Link.com,2013-04-26 13:02:00,
2013-04-26 09:18:00,51.8,40.0,30.40,West,270,4.2,-999.0,64,-99.99,,,0.00,Acu-Link.com,2013-04-26 13:18:00,
2013-04-26 09:33:00,52.7,37.9,30.40,East,90,3.7,-999.0,57,-99.99,,,0.00,Acu-Link.com,2013-04-26 13:33:00,
2013-04-26 09:48:00,50.7,37.7,30.41,SE,135,1.7,-999.0,61,-99.99,,,0.00,Acu-Link.com,2013-04-26 13:48:00,
2013-04-26 10:03:00,50.9,34.4,30.41,SSW,202,3.7,-999.0,53,-99.99,,,0.00,Acu-Link.com,2013-04-26 14:03:00,
2013-04-26 10:18:00,49.8,32.4,30.40,North,0,3.7,-999.0,51,-99.99,,,0.00,Acu-Link.com,2013-04-26 14:18:00,
2013-04-26 10:34:00,53.2,35.5,30.41,SW,225,3.2,-999.0,51,-99.99,,,0.00,Acu-Link.com,2013-04-26 14:34:00,
2013-04-26 10:49:00,53.2,33.0,30.41,SW,225,4.7,-999.0,46,-99.99,,,0.00,Acu-Link.com,2013-04-26 14:49:00,
2013-04-26 11:04:00,53.1,33.4,30.41,West,270,1.7,-999.0,47,-99.99,,,0.00,Acu-Link.com,2013-04-26 15:04:00,
2013-04-26 11:19:00,51.8,30.6,30.40,NW,315,2.7,-999.0,44,-99.99,,,0.00,Acu-Link.com,2013-04-26 15:19:00,
2013-04-26 11:35:00,55.6,33.5,30.40,South,180,2.2,-999.0,43,-99.99,,,0.00,Acu-Link.com,2013-04-26 15:35:00,
2013-04-26 11:50:00,53.1,33.9,30.40,ESE,112,1.7,-999.0,48,-99.99,,,0.00,Acu-Link.com,2013-04-26 15:50:00,
2013-04-26 12:05:00,51.8,33.3,30.40,SW,225,3.7,-999.0,49,-99.99,,,0.00,Acu-Link.com,2013-04-26 16:05:00,
2013-04-26 12:20:00,57.0,33.5,30.40,West,270,6.8,-999.0,41,-99.99,,,0.00,Acu-Link.com,2013-04-26 16:20:00,
2013-04-26 12:35:00,55.0,32.3,30.40,North,0,4.7,-999.0,42,-99.99,,,0.00,Acu-Link.com,2013-04-26 16:35:00,
2013-04-26 12:51:00,56.3,31.0,30.39,ENE,67,2.7,-999.0,38,-99.99,,,0.00,Acu-Link.com,2013-04-26 16:51:00,
2013-04-26 13:06:00,61.5,38.2,30.39,North,0,1.7,-999.0,42,-99.99,,,0.00,Acu-Link.com,2013-04-26 17:06:00,
2013-04-26 13:21:00,54.7,31.5,30.39,WNW,292,2.2,-999.0,41,-99.99,,,0.00,Acu-Link.com,2013-04-26 17:21:00,
2013-04-26 13:36:00,56.3,29.7,30.37,ESE,112,3.7,-999.0,36,-99.99,,,0.00,Acu-Link.com,2013-04-26 17:36:00,
2013-04-26 13:51:00,55.6,27.7,30.37,NNW,337,5.8,-999.0,34,-99.99,,,0.00,Acu-Link.com,2013-04-26 17:51:00,
2013-04-26 14:07:00,58.8,30.5,30.37,SW,225,5.3,-999.0,34,-99.99,,,0.00,Acu-Link.com,2013-04-26 18:07:00,
2013-04-26 14:22:00,59.7,31.3,30.36,SW,225,4.2,-999.0,34,-99.99,,,0.00,Acu-Link.com,2013-04-26 18:22:00,
2013-04-26 14:37:00,57.4,28.5,30.36,SSW,202,2.7,-999.0,33,-99.99,,,0.00,Acu-Link.com,2013-04-26 18:37:00,
2013-04-26 14:52:00,59.9,30.0,30.36,WSW,247,7.3,-999.0,32,-99.99,,,0.00,Acu-Link.com,2013-04-26 18:52:00,
2013-04-26 15:07:00,60.6,29.0,30.36,SSE,157,5.3,-999.0,30,-99.99,,,0.00,Acu-Link.com,2013-04-26 19:07:00,
2013-04-26 15:23:00,61.3,27.0,30.36,West,270,1.7,-999.0,27,-99.99,,,0.00,Acu-Link.com,2013-04-26 19:23:00,
2013-04-26 15:38:00,61.2,31.1,30.35,ENE,67,1.7,-999.0,32,-99.99,,,0.00,Acu-Link.com,2013-04-26 19:38:00,
2013-04-26 15:53:00,61.7,34.5,30.34,WSW,247,0.0,-999.0,36,-99.99,,,0.00,Acu-Link.com,2013-04-26 19:53:00,
2013-04-26 16:08:00,58.5,30.9,30.34,NNW,337,3.2,-999.0,35,-99.99,,,0.00,Acu-Link.com,2013-04-26 20:08:00,
2013-04-26 16:23:00,59.4,33.8,30.33,West,270,6.8,-999.0,38,-99.99,,,0.00,Acu-Link.com,2013-04-26 20:23:00,
2013-04-26 16:38:00,59.7,32.7,30.32,West,270,7.8,-999.0,36,-99.99,,,0.00,Acu-Link.com,2013-04-26 20:38:00,
2013-04-26 16:54:00,60.1,33.1,30.31,SW,225,5.3,-999.0,36,-99.99,,,0.00,Acu-Link.com,2013-04-26 20:54:00,
2013-04-26 17:09:00,60.3,31.1,30.31,SSW,202,5.8,-999.0,33,-99.99,,,0.00,Acu-Link.com,2013-04-26 21:09:00,
2013-04-26 17:24:00,60.1,30.9,30.30,West,270,4.2,-999.0,33,-99.99,,,0.00,Acu-Link.com,2013-04-26 21:24:00,
2013-04-26 17:39:00,59.0,30.7,30.30,West,270,4.2,-999.0,34,-99.99,,,0.00,Acu-Link.com,2013-04-26 21:39:00,
2013-04-26 17:54:00,63.5,33.9,30.30,South,180,0.0,-999.0,33,-99.99,,,0.00,Acu-Link.com,2013-04-26 21:54:00,
2013-04-26 18:10:00,63.9,31.9,30.31,SSW,202,2.2,-999.0,30,-99.99,,,0.00,Acu-Link.com,2013-04-26 22:10:00,
2013-04-26 18:25:00,63.5,29.8,30.31,West,270,2.7,-999.0,28,-99.99,,,0.00,Acu-Link.com,2013-04-26 22:25:00,
2013-04-26 18:40:00,63.1,30.3,30.31,West,270,4.2,-999.0,29,-99.99,,,0.00,Acu-Link.com,2013-04-26 22:40:00,
2013-04-26 18:56:00,62.2,28.7,30.31,WSW,247,4.2,-999.0,28,-99.99,,,0.00,Acu-Link.com,2013-04-26 22:56:00,
2013-04-26 19:11:00,63.1,32.0,30.31,SSE,157,0.0,-999.0,31,-99.99,,,0.00,Acu-Link.com,2013-04-26 23:11:00,
2013-04-26 19:26:00,64.4,30.6,30.32,WSW,247,0.0,-999.0,28,-99.99,,,0.00,Acu-Link.com,2013-04-26 23:26:00,
2013-04-26 19:42:00,64.0,31.9,30.31,SW,225,1.1,-999.0,30,-99.99,,,0.00,Acu-Link.com,2013-04-26 23:42:00,
2013-04-26 20:12:00,57.2,29.1,30.32,West,270,1.7,-999.0,34,-99.99,,,0.00,Acu-Link.com,2013-04-27 00:12:00,
2013-04-26 20:28:00,54.7,28.3,30.32,West,270,1.7,-999.0,36,-99.99,,,0.00,Acu-Link.com,2013-04-27 00:28:00,
2013-04-26 20:43:00,53.6,27.3,30.32,West,270,0.0,-999.0,36,-99.99,,,0.00,Acu-Link.com,2013-04-27 00:43:00,
2013-04-26 20:58:00,53.2,28.9,30.32,NW,315,0.0,-999.0,39,-99.99,,,0.00,Acu-Link.com,2013-04-27 00:58:00,
2013-04-26 21:13:00,51.4,30.8,30.33,East,90,1.1,-999.0,45,-99.99,,,0.00,Acu-Link.com,2013-04-27 01:13:00,
2013-04-26 21:29:00,50.0,31.1,30.32,East,90,0.0,-999.0,48,-99.99,,,0.00,Acu-Link.com,2013-04-27 01:29:00,
2013-04-26 21:44:00,49.1,31.3,30.33,ENE,67,1.7,-999.0,50,-99.99,,,0.00,Acu-Link.com,2013-04-27 01:44:00,
2013-04-26 21:59:00,48.7,29.9,30.33,ENE,67,0.0,-999.0,48,-99.99,,,0.00,Acu-Link.com,2013-04-27 01:59:00,
2013-04-26 22:14:00,47.7,31.4,30.33,ENE,67,0.0,-999.0,53,-99.99,,,0.00,Acu-Link.com,2013-04-27 02:14:00,
2013-04-26 22:30:00,46.8,31.0,30.33,SSE,157,0.0,-999.0,54,-99.99,,,0.00,Acu-Link.com,2013-04-27 02:30:00,
2013-04-26 22:45:00,45.9,31.1,30.33,North,0,0.0,-999.0,56,-99.99,,,0.00,Acu-Link.com,2013-04-27 02:45:00,
2013-04-26 23:00:00,46.2,31.8,30.33,ENE,67,0.0,-999.0,57,-99.99,,,0.00,Acu-Link.com,2013-04-27 03:00:00,
2013-04-26 23:15:00,45.1,31.2,30.33,East,90,0.0,-999.0,58,-99.99,,,0.00,Acu-Link.com,2013-04-27 03:15:00,
2013-04-26 23:31:00,45.5,30.7,30.33,East,90,0.0,-999.0,56,-99.99,,,0.00,Acu-Link.com,2013-04-27 03:31:00,
2013-04-26 23:46:00,45.3,31.8,30.33,NE,45,0.0,-999.0,59,-99.99,,,0.00,Acu-Link.com,2013-04-27 03:46:00,